N700LM YBBN-YBSU

Flight info

Callsign N700LM
Flight time 0h 16m
Altitude 13000
Route OSOKO/N0389F120 DCT BUKBU DCT SU
Aircraft C700/M-SBDGHM1RWXY/LB2

Departure

Time 2026-04-19 21:22
Airport Brisbane International Airport (YBBN)

Arrival

Time 2026-04-19 21:38
Airport Sunshine Coast Airport (YBSU)
Time Latitude Longitude Altitude Speed Heading
2026-04-19 21:07 -27.37474 153.12596 12 ft 0 kts 116°
2026-04-19 21:13 -27.37465 153.12576 12 ft 4 kts 126°
2026-04-19 21:13 -27.37449 153.12552 12 ft 4 kts 103°
2026-04-19 21:13 -27.37451 153.12540 12 ft 1 kts 51°
2026-04-19 21:13 -27.37452 153.12538 12 ft 0 kts 51°
2026-04-19 21:19 -27.37450 153.12542 12 ft 4 kts 51°
2026-04-19 21:19 -27.37393 153.12583 12 ft 14 kts 27°
2026-04-19 21:19 -27.37323 153.12663 12 ft 16 kts 101°
2026-04-19 21:19 -27.37378 153.12784 12 ft 18 kts 116°
2026-04-19 21:20 -27.37439 153.12918 12 ft 20 kts 116°
2026-04-19 21:20 -27.37505 153.13066 12 ft 22 kts 117°
2026-04-19 21:20 -27.37493 153.13186 13 ft 17 kts 33°
2026-04-19 21:20 -27.37380 153.13249 12 ft 20 kts 25°
2026-04-19 21:21 -27.37349 153.13377 13 ft 21 kts 124°
2026-04-19 21:21 -27.37469 153.13428 17 ft 20 kts 205°
2026-04-19 21:21 -27.37806 153.13241 15 ft 110 kts 207°
2026-04-19 21:21 -27.38780 153.12675 406 ft 202 kts 207°
2026-04-19 21:22 -27.40225 153.11827 988 ft 263 kts 207°
2026-04-19 21:22 -27.41920 153.10872 1944 ft 285 kts 201°
2026-04-19 21:22 -27.43866 153.10584 3475 ft 294 kts 171°
2026-04-19 21:22 -27.45822 153.11361 5492 ft 315 kts 152°
2026-04-19 21:23 -27.47450 153.13099 7652 ft 335 kts 127°
2026-04-19 21:23 -27.48289 153.15588 9981 ft 349 kts 102°
2026-04-19 21:23 -27.48132 153.18343 12150 ft 366 kts 81°
2026-04-19 21:23 -27.47141 153.21125 12981 ft 391 kts 62°
2026-04-19 21:24 -27.45334 153.23439 12999 ft 397 kts 39°
2026-04-19 21:24 -27.43757 153.24486 12995 ft 402 kts 24°
2026-04-19 21:24 -27.41050 153.25155 12994 ft 402 kts
2026-04-19 21:24 -27.37459 153.24376 13000 ft 398 kts 340°
2026-04-19 21:25 -27.34860 153.23299 13009 ft 398 kts 338°
2026-04-19 21:25 -27.32237 153.22281 13008 ft 399 kts 341°
2026-04-19 21:25 -27.29557 153.21478 13013 ft 400 kts 346°
2026-04-19 21:25 -27.26813 153.20983 13015 ft 400 kts 354°
2026-04-19 21:26 -27.24970 153.20937 13007 ft 401 kts
2026-04-19 21:26 -27.22196 153.21266 13006 ft 401 kts
2026-04-19 21:26 -27.19516 153.21726 12636 ft 372 kts
2026-04-19 21:26 -27.16955 153.22075 12009 ft 376 kts
2026-04-19 21:27 -27.13417 153.22418 12010 ft 395 kts
2026-04-19 21:27 -27.11582 153.22661 12008 ft 392 kts
2026-04-19 21:27 -27.08864 153.23086 12006 ft 394 kts
2026-04-19 21:27 -27.06167 153.23466 12010 ft 395 kts
2026-04-19 21:28 -27.03422 153.23646 12002 ft 395 kts 357°
2026-04-19 21:28 -27.00701 153.23202 11991 ft 394 kts 346°
2026-04-19 21:28 -26.98081 153.22299 11991 ft 394 kts 340°
2026-04-19 21:28 -26.95471 153.21359 11990 ft 394 kts 341°
2026-04-19 21:29 -26.92842 153.20479 11994 ft 394 kts 342°
2026-04-19 21:29 -26.90220 153.19591 11996 ft 392 kts 342°
2026-04-19 21:29 -26.87648 153.19102 11690 ft 360 kts
2026-04-19 21:29 -26.85351 153.19712 11050 ft 326 kts 28°
2026-04-19 21:30 -26.83705 153.21229 10367 ft 302 kts 51°
2026-04-19 21:30 -26.82421 153.23069 9384 ft 294 kts 56°
2026-04-19 21:30 -26.81183 153.24776 8821 ft 275 kts 50°
2026-04-19 21:30 -26.79830 153.26282 7934 ft 273 kts 47°
2026-04-19 21:31 -26.78888 153.28058 7087 ft 263 kts 78°
2026-04-19 21:31 -26.78934 153.30036 6254 ft 252 kts 111°
2026-04-19 21:31 -26.79908 153.31594 5399 ft 242 kts 143°
2026-04-19 21:31 -26.81376 153.32413 4610 ft 235 kts 168°
2026-04-19 21:32 -26.82948 153.32233 4005 ft 225 kts 205°
2026-04-19 21:32 -26.84167 153.31136 3989 ft 236 kts 231°
2026-04-19 21:32 -26.84756 153.29437 3991 ft 241 kts 261°
2026-04-19 21:32 -26.84460 153.27595 3983 ft 250 kts 294°
2026-04-19 21:33 -26.83280 153.26172 3997 ft 254 kts 326°
2026-04-19 21:33 -26.81714 153.25238 4006 ft 255 kts 333°
2026-04-19 21:33 -26.80117 153.24382 4006 ft 254 kts 333°
2026-04-19 21:33 -26.78540 153.23464 4014 ft 256 kts 330°
2026-04-19 21:34 -26.76969 153.22508 3956 ft 257 kts 330°
2026-04-19 21:34 -26.75386 153.21559 3684 ft 258 kts 331°
2026-04-19 21:34 -26.73807 153.20627 3365 ft 255 kts 331°
2026-04-19 21:34 -26.72363 153.19543 3105 ft 252 kts 321°
2026-04-19 21:35 -26.70985 153.18330 2780 ft 246 kts 321°
2026-04-19 21:35 -26.69680 153.17206 2457 ft 229 kts 321°
2026-04-19 21:35 -26.68442 153.16148 2134 ft 220 kts 322°
2026-04-19 21:35 -26.67237 153.15113 1816 ft 218 kts 321°
2026-04-19 21:36 -26.66039 153.14080 1507 ft 214 kts 321°
2026-04-19 21:36 -26.64871 153.13078 1229 ft 208 kts 321°
2026-04-19 21:36 -26.63811 153.12171 932 ft 179 kts 320°
2026-04-19 21:36 -26.62851 153.11347 681 ft 171 kts 320°
2026-04-19 21:37 -26.61947 153.10569 459 ft 158 kts 319°
2026-04-19 21:37 -26.61101 153.09845 247 ft 146 kts 320°
2026-04-19 21:37 -26.60377 153.09215 49 ft 121 kts 319°
2026-04-19 21:37 -26.59780 153.08699 21 ft 96 kts 320°
2026-04-19 21:38 -26.59433 153.08407 16 ft 39 kts 323°
2026-04-19 21:38 -26.59363 153.08251 17 ft 23 kts 234°
2026-04-19 21:38 -26.59487 153.08218 21 ft 24 kts 141°
2026-04-19 21:38 -26.59632 153.08343 20 ft 29 kts 143°
2026-04-19 21:39 -26.59806 153.08492 18 ft 35 kts 142°
2026-04-19 21:39 -26.60007 153.08664 18 ft 29 kts 144°
2026-04-19 21:39 -26.60113 153.08757 18 ft 8 kts 137°
2026-04-19 21:39 -26.60166 153.08808 21 ft 11 kts 143°
2026-04-19 21:40 -26.60294 153.08911 18 ft 4 kts 141°
2026-04-19 21:40 -26.60303 153.08919 18 ft 3 kts 142°
2026-04-19 21:40 -26.60361 153.08912 18 ft 12 kts 191°
2026-04-19 21:41 -26.60446 153.08965 18 ft 16 kts 143°
2026-04-19 21:41 -26.60542 153.09042 18 ft 19 kts 149°
2026-04-19 21:41 -26.60670 153.09028 18 ft 16 kts 195°
2026-04-19 21:41 -26.60746 153.08993 18 ft 9 kts 272°
2026-04-19 21:42 -26.60769 153.08942 18 ft 10 kts 194°
2026-04-19 21:42 -26.60859 153.08917 20 ft 17 kts 193°
2026-04-19 21:42 -26.60976 153.08867 18 ft 14 kts 241°
2026-04-19 21:42 -26.60975 153.08809 20 ft 0 kts 281°
2026-04-19 21:43 -26.60973 153.08798 19 ft 0 kts 284°